Regional Weather Roundup
Issued by NWS

Home | Current Version | Previous Version | Graphics & Text | Print | Product List | Glossary Off
Versions: 1 2 3 4 5 6 7 8 9 10 11 12 13 14 15 16 17 18 19 20 21 22 23 24 25 26 27 28 29 30 31 32 33 34 35 36 37 38 39 40 41 42 43 44 45 46 47 48 49 50

000
ASUS43 KMKX 070410
RWRWI

WISCONSIN REGIONAL WEATHER ROUNDUP
NATIONAL WEATHER SERVICE MILWAUKEE/SULLIVAN WI
1000 PM CST FRI MAR 06 2015

NOTE: "FAIR" INDICATES FEW OR NO CLOUDS BELOW 12,000 FEET WITH NO
SIGNIFICANT WEATHER AND/OR OBSTRUCTIONS TO VISIBILITY.

WIZ001-002-006>008-014>016-023>028-070500-
NORTHWEST WISCONSIN

CITY           SKY/WX    TMP DP  RH WIND       PRES   REMARKS
SUPERIOR ARPT  MOCLDY    25  10  53 SW5       29.98S WCI  19
ASHLAND        PTCLDY    27   9  46 SW9       29.97F WCI  18
HAYWARD        MOCLDY    20  11  68 S6        29.99S WCI  12
SIREN          MOCLDY    28  16  58 W9        30.02S WCI  20
CUMBERLAND     PTCLDY    23  12  63 SW7       30.00F WCI  15
RICE LAKE      PTCLDY    24  13  64 W3        30.04R
CHETEK         PTCLDY    26  14  61 SW3       30.03R
LADYSMITH      PTCLDY    22  13  69 SW5       30.02S WCI  16
EAU CLAIRE     CLEAR     22  12  65 SW5       30.05R WCI  16
MENOMONIE      FAIR      26  15  61 SW3       30.05S
NEW RICHMOND   PTCLDY    25  15  67 W7        30.04F WCI  17
OSCEOLA        PTCLDY    25  17  70 SW7       30.07F WCI  17
$$

WIZ003>005-009-010-017-018-070500-
NORTH CENTRAL WISCONSIN

CITY           SKY/WX    TMP DP  RH WIND       PRES   REMARKS
MANITOWISH WTR CLEAR      9   4  80 SW3       29.94S
ARBOR VITAE    CLEAR     14   8  75 CALM      29.95S
WOODRUFF       CLEAR     14   8  75 CALM      29.95S
RHINELANDER    CLEAR     15   7  70 W5        29.96S WCI   8
EAGLE RIVER    CLEAR     14   6  70 SW3       29.94S
LAND O LAKES   CLEAR      5   2  86 CALM      29.94S
PHILLIPS       MOCLDY    19  11  70 SW5       29.97S WCI  12
TOMAHAWK       CLEAR     20  11  69 CALM      29.98S
MEDFORD        CLEAR     21  13  69 W6        29.99S WCI  14
MERRILL        CLEAR     10   7  85 CALM      30.00S
$$

WIZ029-030-035-036-043>047-070500-
CENTRAL WISCONSIN

CITY           SKY/WX    TMP DP  RH WIND       PRES   REMARKS
WAUSAU         CLEAR     19  12  74 CALM      30.00S
MOSINEE        CLEAR     19  14  79 SW3       30.03
MARSHFIELD     PTCLDY    23  14  68 CALM      30.02S
STEVENS POINT  PTCLDY    16  11  82 CALM      30.04S
WAUPACA        PTCLDY    22  15  72 CALM      30.06R
WAUTOMA        PTCLDY    21  15  78 CALM      30.07R
WISC RAPIDS    PTCLDY    23  14  68 CALM      30.05S
CAMP DOUGLAS   PTCLDY    26  22  87 SW5       30.05R WCI  20
$$

WIZ011>013-019>022-031-037>040-048>050-070500-
NORTHEAST WISCONSIN

CITY           SKY/WX    TMP DP  RH WIND       PRES   REMARKS
ANTIGO         CLEAR     16   9  75 SW6       29.98S WCI   7
SHAWANO        CLEAR     26  14  59 CALM      30.04S
OCONTO         CLEAR     16  10  77 CALM      30.04S
STURGEON BAY   CLEAR     19  12  73 SW8       30.05S WCI   9
GREEN BAY      CLEAR     19  13  77 SW5       30.05S WCI  12
MANITOWOC      PTCLDY    23  17  78 W9        30.07R WCI  13
APPLETON       PTCLDY    21  12  68 SW8       30.06R WCI  12
CLINTONVILLE   PTCLDY    18  10  73 SW3       30.04S
OSHKOSH        MOCLDY    23  15  71 SW8       30.06S WCI  14
$$

WIZ032>034-041-042-053>061-070500-
SOUTHWEST WISCONSIN

CITY           SKY/WX    TMP DP  RH WIND       PRES   REMARKS
LA CROSSE      CLEAR     25  19  78 S7        30.08R WCI  17
SPARTA         CLEAR     22  17  83 CALM      30.07S
VIROQUA        CLEAR     25  22  86 W8        30.05S WCI  17
BOSCOBEL       PTCLDY    24  18  77 CALM      30.10R
PRAIRIE DU CHI CLEAR     28  20  74 CALM      30.09S
PLATTEVILLE    MOCLDY    26  20  77 S3        30.08S
$$

WIZ056-057-062-063-064-067-068-070500-
SOUTH CENTRAL WISCONSIN

CITY           SKY/WX    TMP DP  RH WIND       PRES   REMARKS
REEDSBURG      PTCLDY    24  18  77 CALM      30.07R
BARABOO/DELLS  PTCLDY    26  18  73 CALM      30.07R
LONE ROCK      PTCLDY    18  12  77 CALM      30.09S
MINERAL POINT  MOCLDY    28  21  74 SW3       30.07S
MADISON        MOCLDY    26  18  71 S3        30.09S
MIDDLETON      MOCLDY    28  19  68 SW5       30.08F WCI  23
WATERTOWN      PTCLDY    21  17  84 SW3       30.09S
MONROE         PTCLDY    27  21  80 SW8       30.07F WCI  18
JANESVILLE     MOCLDY    25  19  80 CALM      30.10F
$$

WIZ051-052-058>065-066-070>072-070500-
SOUTHEAST WISCONSIN

CITY           SKY/WX    TMP DP  RH WIND       PRES   REMARKS
MILWAUKEE      MOCLDY    23  16  74 SW6       30.11F WCI  16
WAUKESHA       MOCLDY    25  19  80 S5        30.10F WCI  19
MILWAUKEE/TIMM MOCLDY    25  18  74 SW7       30.11S WCI  17
RACINE         MOCLDY    24  16  71 SW8       30.13F WCI  15
BURLINGTON     MOCLDY    19  15  84 S7        30.11F WCI  10
KENOSHA        MOCLDY    24  17  74 SW9       30.12S WCI  14
FOND DU LAC    MOCLDY    23  15  71 SW9       30.07S WCI  13
SHEBOYGAN      PTCLDY    23  15  71 SW9       30.08R WCI  13
WEST BEND      MOCLDY    25  18  74 SW7       30.08S WCI  17
JUNEAU         MOCLDY    20  16  82 S5        30.09S WCI  14
$$

LSZ147-162-070500-
LAKE SUPERIOR

STATION/POSITION TIME  TEMP    WIND        PRES    WAVE
                       AIR SEA DIR/SP/G            HT/PER
                 (UTC) (F)     (DEG/KT/KT) (MB)    (FT/S)
DEVILS ISLAND    0400   27     240/ 12/ 14 1014.9F
PORT WING        0340   27     200/  6/  8 1015.2F
SAXON HARBOR     0340   20     200/  4/  7 1015.2S
$$

LMZ867-665-643>646-070500-
LAKE MICHIGAN

STATION/POSITION TIME  TEMP    WIND        PRES    WAVE
                       AIR SEA DIR/SP/G            HT/PER
                 (UTC) (F)     (DEG/KT/KT) (MB)    (FT/S)
NORTHPORT PIER   0301   25     230/  6/ 13 1016.3R
SISTER BAY       0313   24     230/ 10/ 11   N/A
KEWAUNEE LAKESHO 0300   24     250/  8/ 12 1016.6R
SHEBOYGAN LAKESH 0400   26     240/ 11/ 13 1020.0R
PORT WASHINGTON  0340   25     250/  7/  9 1020.0S
MILWAUKEE LAKESH 0300   26     230/ 11/ 14   N/A
KENOSHA   LAKESH 0400   26     220/ 10/ 16 1020.3S
$$

TC  - TEMPERATURE IN CELSIUS
VSB - VISIBILITY IN STATUTE MILES
WCI - WIND CHILL INDEX
HX  - HEAT INDEX



USA.gov is the U.S. government's official web portal to all federal, state and local government web resources and services.